GW1539 Weather Reports


time (UTC)temp
C
wind
direction
speed
KPH
gust
KPH
rain 1hr
cm
rain 24hr
cm
rain mn
cm
humidity
%
barometer
mb
20260903030039 12 260 0.0 0.0 0.00 0.00 0.00 94 1019.5
20260903023028 12 260 0.0 0.0 0.00 0.00 0.00 94 1019.6
20260903020037 13 260 0.0 0.0 0.00 0.00 0.00 94 1019.6
20260903013030 12 260 0.0 0.0 0.00 0.00 0.00 94 1019.7
20260903011537 13 260 0.0 0.0 0.00 0.00 0.00 94 1019.7
20260903004544 13 260 0.0 0.0 0.00 0.00 0.00 93 1019.6
20260903003036 13 260 0.0 0.0 0.00 0.00 0.00 93 1019.5
20260903000038 13 260 0.0 0.0 0.00 0.00 0.00 93 1019.5
20260902233817 13 260 0.0 0.0 0.00 0.00 0.00 92 1019.5
20260902231538 13 260 0.0 0.0 0.00 0.00 0.00 92 1019.5
20260902230028 13 260 0.0 0.0 0.00 0.00 0.00 92 1019.4
20260902223026 14 260 0.0 0.0 0.00 0.00 0.00 91 1019.5
20260902220105 14 260 0.0 0.0 0.00 0.00 0.00 90 1019.2
20260902213036 15 260 0.0 0.0 0.00 0.00 0.00 90 1019.2
20260902211534 15 260 0.0 0.0 0.00 0.00 0.00 89 1019.1
20260902204538 15 260 0.0 0.0 0.00 0.00 0.00 87 1018.9
20260902201523 16 260 0.0 0.0 0.00 0.00 0.00 86 1018.7
20260902194532 16 260 0.0 0.0 0.00 0.00 0.00 86 1018.5
20260902193025 16 260 0.0 0.0 0.00 0.00 0.00 85 1018.6
20260902190032 17 260 0.0 0.0 0.00 0.00 0.00 82 1018.4
20260902183052 18 260 0.0 0.0 0.00 0.00 0.00 80 1017.9
20260902181532 18 260 0.0 0.0 0.00 0.00 0.00 79 1017.7
20260902180030 19 260 0.0 0.0 0.00 0.00 0.00 77 1017.5
20260902173037 20 260 0.0 1.6 0.00 0.00 0.00 77 1017.2
20260902171528 20 260 0.0 0.0 0.00 0.00 0.00 75 1017.1
20260902164539 21 260 0.0 0.0 0.00 0.00 0.00 71 1016.9
20260902163030 21 260 0.0 3.2 0.00 0.00 0.00 68 1017.0
20260902160059 23 260 0.0 4.8 0.00 0.00 0.00 63 1016.9
20260902154545 23 260 1.6 6.4 0.00 0.00 0.00 63 1016.9
20260902151550 22 266 0.0 8.0 0.00 0.00 0.00 63 1017.1
20260902150039 23 236 1.6 16.1 0.00 0.00 0.00 61 1017.2
20260902143041 24 262 0.0 6.4 0.00 0.00 0.00 57 1017.3
20260902141536 25 251 0.0 11.3 0.00 0.00 0.00 57 1017.3
20260902134539 25 254 3.2 8.0 0.00 0.00 0.00 56 1017.6
20260902131543 24 260 3.2 14.5 0.00 0.00 0.00 59 1017.7
20260902124534 25 285 1.6 8.0 0.00 0.00 0.00 58 1017.7
20260902121539 23 241 6.4 14.5 0.00 0.00 0.00 59 1018.1
20260902115326 23 219 0.0 8.0 0.00 0.00 0.00 60 1018.4
20260902113053 23 229 4.8 8.0 0.00 0.00 0.00 62 1018.5
20260902110041 22 221 4.8 12.9 0.00 0.00 0.00 63 1018.7
20260902103058 21 224 1.6 11.3 0.00 0.00 0.00 66 1019.1
20260902101540 22 250 1.6 8.0 0.00 0.00 0.00 64 1019.2
20260902100032 22 278 1.6 8.0 0.00 0.00 0.00 67 1019.3
20260902094530 21 224 3.2 8.0 0.00 0.00 0.00 68 1019.4
20260902093026 21 344 0.0 4.8 0.00 0.00 0.00 70 1019.4
20260902090034 20 306 0.0 6.4 0.00 0.00 0.00 71 1019.7
20260902083035 19 264 0.0 4.8 0.00 0.00 0.00 75 1019.7
20260902081532 18 261 0.0 3.2 0.00 0.00 0.00 77 1019.7
20260902074550 17 252 0.0 0.0 0.00 0.00 0.00 83 1019.5
20260902071530 16 253 0.0 0.0 0.00 0.00 0.00 89 1019.5
20260902064535 14 253 0.0 0.0 0.00 0.00 0.00 96 1019.3
20260902063035 13 253 0.0 0.0 0.00 0.00 0.00 96 1019.5
20260902060036 12 252 0.0 0.0 0.00 0.00 0.00 96 1019.4
20260902054536 12 252 0.0 0.0 0.00 0.00 0.00 95 1019.1
20260902053025 11 253 0.0 0.0 0.00 0.00 0.00 95 1019.0
20260902050057 11 252 0.0 3.2 0.00 0.00 0.00 95 1018.8
20260902044535 11 252 0.0 1.6 0.00 0.00 0.00 95 1018.7
20260902041551 11 253 0.0 0.0 0.00 0.00 0.00 95 1018.8
20260902034545 12 252 0.0 1.6 0.00 0.00 0.00 95 1018.8
20260902033034 12 252 0.0 0.0 0.00 0.00 0.00 94 1019.0